Home   Weather   Qadian   Past weeks

Flag for India Past Weather in Qadian, Punjab, India — Yesterday and Last 2 Weeks

Now
77 °F

Scattered clouds.


Feels Like: 78 °F
Forecast: 47 / 78 °F
Wind: 2 mph from North

Location: Amritsar Airport

Current Time: Dec 4, 2016 at 1:51:59 pm

Latest Report: Dec 4, 2016 at 1:30 pm


Visibility: 2 mi

Pressure: 30.12 "Hg

Humidity: 34%

Dew Point: 46 °F

Location of QadianLocation

Past Weather in Qadian — Graph

°F

Qadian Temperature Yesterday

Maximum temperature yesterday: 79 °F (at 2:00 pm)
Minimum temperature yesterday: 46 °F (at 5:30 am)
Average temperature yesterday: 61 °F

High & Low Weather Summary for the Past Weeks

 TemperatureHumidityPressure
High82 °F (Nov 21, 2:30 pm)100% (Nov 19, 10:00 pm)30.18 "Hg (Nov 19, 10:00 pm)
Low45 °F (Nov 28, 7:30 am)17% (Nov 28, 2:30 pm)29.65 "Hg (Nov 22, 12:00 am)
Average63 °F70%29.99 "Hg
* Reported Nov 19 1:00 pm — Dec 4 12:30 pm, Qadian, Weather by CustomWeather, © 2016

Note: Actual official high and low records may vary slightly from our data, if they occured in-between our weather recording intervals... More about our weather records

Advertising

Qadian Weather History for the Previous 24 Hours

Scroll right to see more
 ConditionsComfort  
Time TempWeatherWind HumidityBarometerVisibility
12:30 pm
Sun, Dec 4
73 °FScattered clouds.2 mph44%30.15 "Hg1 mi
12:00 pm72 °FScattered clouds.2 mph47%30.18 "Hg1 mi
11:30 am70 °FScattered clouds.No wind57%30.18 "Hg1 mi
11:00 am68 °FFog.No wind69%30.18 "Hg1 mi
10:30 am64 °FFog.No wind88%30.18 "Hg1 mi
10:00 am63 °FFog.No wind100%30.18 "Hg1 mi
9:30 am57 °FFog.1 mph100%30.18 "Hg1 mi
9:00 am54 °FFog.No wind100%30.18 "Hg1 mi
8:30 am52 °FFog.No wind100%30.15 "Hg1 mi
8:00 am50 °FFog.No wind100%30.15 "Hg1 mi
7:30 am50 °FFog.No wind100%30.15 "Hg1 mi
7:00 am50 °FFog.2 mph100%30.12 "Hg1 mi
6:30 am48 °FFog.No wind100%30.12 "Hg1 mi
6:00 am48 °FFog.No wind100%30.12 "Hg1 mi
5:30 am50 °FFog.No wind100%30.12 "Hg1 mi
5:00 am50 °FFog.No wind100%30.12 "Hg1 mi
4:30 am50 °FFog.No wind100%30.12 "Hg1 mi
4:00 am50 °FFog.No wind100%30.12 "Hg1 mi
3:30 am50 °FFog.No wind100%30.12 "Hg1 mi
3:00 am50 °FFog.No wind100%30.12 "Hg1 mi
2:30 am50 °FFog.No wind100%30.12 "Hg2 mi
2:00 am50 °FFog.No wind100%30.12 "Hg2 mi
1:30 am50 °FFog.No wind100%30.12 "Hg2 mi
1:00 am50 °FFog.No wind100%30.12 "Hg2 mi
12:30 am52 °FFog.No wind100%30.12 "Hg2 mi
12:00 am52 °FFog.No wind100%30.15 "Hg2 mi
11:30 pm
Sat, Dec 3
54 °FFog.No wind94%30.15 "Hg2 mi
11:00 pm54 °FFog.No wind100%30.15 "Hg1 mi
10:30 pm54 °FFog.No wind100%30.15 "Hg1 mi
10:00 pm54 °FFog.No wind82%30.12 "Hg1 mi
9:30 pm55 °FFog.No wind88%30.12 "Hg1 mi
9:00 pm55 °FFog.No wind77%30.12 "Hg2 mi
8:30 pm59 °FHaze.No wind68%30.12 "Hg2 mi
8:00 pm59 °FPassing clouds.No wind63%30.12 "Hg2 mi
7:30 pm61 °FPassing clouds.2 mph59%30.12 "Hg2 mi
7:00 pm61 °FPassing clouds.No wind63%30.09 "Hg2 mi
6:30 pm63 °FPassing clouds.No wind56%30.09 "Hg2 mi
6:00 pm66 °FPassing clouds.No wind49%30.09 "Hg2 mi
4:00 pm79 °FScattered clouds.1 mph24%30.07 "Hg2 mi
3:30 pm79 °FScattered clouds.2 mph23%30.07 "Hg2 mi
2:30 pm79 °FScattered clouds.3 mph23%30.09 "Hg2 mi
2:00 pm79 °FScattered clouds.2 mph20%30.09 "Hg2 mi
1:30 pm77 °FScattered clouds.1 mph21%30.09 "Hg2 mi
1:00 pm77 °FHaze.2 mph30%30.12 "Hg1 mi
Weather by CustomWeather, © 2016

See weather overviewHow to use our weather pages